EW7837 Weather Reports


time (UTC)temp
F
wind
direction
speed
knots
gust
knots
rain 1hr
in
rain 24hr
in
rain mn
in
humidity
%
barometer
mb
20260905191507 88 232 0.0 0.0 0.00 0.00 0.00 46 1010.0
20260905190005 87 232 0.0 0.0 0.00 0.00 0.00 48 1010.1
20260905184501 86 232 0.0 0.0 0.00 0.00 0.00 49 1010.0
20260905183027 85 232 0.0 0.0 0.00 0.00 0.00 54 1010.5
20260905181526 84 232 0.0 0.0 0.00 0.00 0.00 57 1010.6
20260905180010 83 232 0.0 0.0 0.00 0.00 0.00 59 1010.6
20260905174517 82 232 0.0 0.0 0.00 0.00 0.00 58 1010.5
20260905173015 82 232 0.0 0.0 0.00 0.00 0.00 55 1010.1
20260905171513 80 232 0.0 0.0 0.00 0.00 0.00 53 1010.4
20260905170037 78 232 0.0 0.0 0.00 0.00 0.00 55 1010.3
20260905164534 77 232 0.0 0.0 0.00 0.00 0.00 61 1010.4
20260905163008 76 232 0.0 0.0 0.00 0.00 0.00 63 1010.0
20260905161605 76 232 0.0 0.0 0.00 0.00 0.00 67 1010.3
20260905160050 73 232 0.0 0.0 0.00 0.00 0.00 71 1010.5
20260905154552 71 232 0.0 0.0 0.00 0.00 0.00 76 1010.5
20260905153044 69 232 0.0 0.0 0.00 0.00 0.00 79 1010.4
20260905151542 68 232 0.0 0.0 0.00 0.00 0.00 79 1010.0
20260905150040 66 232 0.0 0.0 0.00 0.00 0.00 83 1010.2
20260905144538 63 232 0.0 0.0 0.00 0.00 0.00 89 1010.1
20260905143036 61 232 0.0 0.0 0.00 0.00 0.00 91 1010.1
20260905141535 61 232 0.0 0.0 0.00 0.00 0.00 91 1010.1
20260905140029 60 232 0.0 0.0 0.00 0.00 0.00 90 1009.6
20260905134529 60 232 0.0 0.0 0.00 0.00 0.00 90 1009.8
20260905133025 61 232 0.0 0.0 0.00 0.00 0.00 90 1009.6
20260905131528 60 232 0.0 0.0 0.00 0.00 0.00 91 1009.4
20260905130025 61 232 0.0 0.0 0.00 0.00 0.00 90 1009.4
20260905124524 60 232 0.0 0.0 0.00 0.00 0.00 91 1009.3
20260905123022 60 232 0.0 0.0 0.00 0.00 0.00 90 1009.1
20260905121526 60 232 0.0 0.0 0.00 0.00 0.00 90 1009.1
20260905120018 60 232 0.0 0.0 0.00 0.00 0.00 90 1009.1
20260905114518 60 232 0.0 0.0 0.00 0.00 0.00 90 1009.1
20260905113020 60 233 0.0 0.0 0.00 0.00 0.00 90 1009.4
20260905111520 60 232 0.0 0.0 0.00 0.00 0.00 90 1009.1
20260905110013 60 232 0.0 0.0 0.00 0.00 0.00 89 1009.5
20260905104516 60 232 0.0 0.0 0.00 0.00 0.00 89 1009.5
20260905103013 61 232 0.0 0.0 0.00 0.00 0.00 89 1009.5
20260905101511 61 232 0.0 0.0 0.00 0.00 0.00 89 1009.5
20260905100046 61 232 0.0 0.0 0.00 0.00 0.00 89 1009.4
20260905094547 61 232 0.0 0.0 0.00 0.00 0.00 89 1009.6
20260905093044 61 232 0.0 0.0 0.00 0.00 0.00 88 1009.6
20260905091602 62 232 0.0 0.0 0.00 0.00 0.00 89 1009.8
20260905090032 62 232 0.0 0.0 0.00 0.00 0.00 88 1010.0
20260905084539 62 232 0.0 0.0 0.00 0.00 0.00 88 1009.6
20260905083029 63 232 0.0 0.0 0.00 0.00 0.00 88 1010.1
20260905081530 63 232 0.0 0.0 0.00 0.00 0.00 88 1010.2
20260905080038 63 232 0.0 0.0 0.00 0.00 0.00 87 1010.2
20260905074530 63 232 0.0 0.0 0.00 0.00 0.00 87 1010.5
20260905073026 63 232 0.0 0.0 0.00 0.00 0.00 87 1010.2
20260905071523 64 232 0.0 0.0 0.00 0.00 0.00 87 1010.5
20260905070038 64 232 0.0 0.0 0.00 0.00 0.00 86 1010.5
20260905064518 65 232 0.0 0.0 0.00 0.00 0.00 86 1010.5
20260905063117 65 232 0.0 0.0 0.00 0.00 0.00 86 1010.5
20260905061550 65 232 0.0 0.0 0.00 0.00 0.00 86 1010.1
20260905060045 65 232 0.0 0.0 0.00 0.00 0.00 85 1010.1
20260905054532 66 232 0.0 0.0 0.00 0.00 0.00 84 1010.3
20260905053010 66 232 0.0 0.0 0.00 0.00 0.00 84 1010.4
20260905051506 66 232 0.0 0.0 0.00 0.00 0.00 83 1010.4
20260905050004 67 232 0.0 0.0 0.00 0.00 0.00 82 1010.0
20260905044601 68 232 0.0 0.0 0.00 0.00 0.00 82 1009.9
20260905044503 68 232 0.0 0.0 0.00 0.00 0.00 82 1009.9
20260905043059 68 232 0.0 0.0 0.00 0.00 0.00 81 1010.0
20260905043001 68 232 0.0 0.0 0.00 0.00 0.00 81 1010.0
20260905041527 69 232 0.0 0.0 0.00 0.00 0.00 80 1009.9
20260905040024 70 232 0.0 0.0 0.00 0.00 0.00 80 1009.8
20260905034527 71 232 0.0 0.0 0.00 0.00 0.00 80 1009.5
20260905033024 71 232 0.0 0.0 0.00 0.00 0.00 80 1009.1
20260905031517 71 232 0.0 0.0 0.00 0.00 0.00 79 1009.0
20260905030017 71 232 0.0 0.0 0.00 0.00 0.00 79 1009.2
20260905024511 71 232 0.0 0.0 0.00 0.00 0.00 79 1009.0
20260905023009 72 232 0.0 0.0 0.00 0.00 0.00 78 1009.0
20260905021510 73 232 0.0 0.0 0.00 0.00 0.00 76 1009.0
20260905020012 74 232 0.0 0.0 0.00 0.00 0.00 74 1008.7
20260905014536 75 232 0.0 0.0 0.00 0.00 0.00 72 1008.5
20260905013036 76 232 0.0 0.0 0.00 0.00 0.00 71 1008.9
20260905011534 77 221 0.0 0.0 0.00 0.00 0.00 69 1008.9
20260905010033 78 250 0.0 0.0 0.00 0.00 0.00 67 1008.8
20260905004533 79 252 0.0 0.0 0.00 0.00 0.00 66 1008.9
20260905003033 80 255 0.0 0.0 0.00 0.00 0.00 64 1008.6
20260905001530 80 252 0.0 0.0 0.00 0.00 0.00 63 1008.6
20260905000030 80 238 0.0 0.0 0.00 0.00 0.00 62 1008.6
20260904234537 80 248 0.0 0.0 0.00 0.00 0.00 60 1009.0
20260904233026 80 255 0.0 0.0 0.00 0.00 0.00 61 1009.0
20260904231524 79 210 0.0 0.0 0.00 0.00 0.00 61 1009.0
20260904230023 79 252 0.0 0.0 0.00 0.00 0.00 61 1009.0
20260904224522 79 259 0.0 0.0 0.00 0.00 0.00 62 1009.0
20260904223022 79 255 0.0 0.0 0.00 0.00 0.00 62 1009.2
20260904221558 79 244 0.0 0.0 0.00 0.00 0.00 63 1009.6
20260904220058 79 239 0.0 0.0 0.00 0.00 0.00 63 1010.0
20260904214558 79 247 0.0 0.0 0.00 0.00 0.00 63 1009.9
20260904213105 80 218 0.0 0.0 0.00 0.00 0.00 62 1009.5
20260904211547 80 258 0.0 0.0 0.00 0.00 0.00 63 1009.4
20260904210047 80 250 0.0 0.0 0.00 0.00 0.00 63 1009.9
20260904204534 79 248 0.0 0.0 0.00 0.00 0.00 63 1010.0
20260904203042 78 272 0.0 0.0 0.00 0.00 0.00 64 1010.0
20260904201511 79 257 0.0 0.0 0.00 0.00 0.00 64 1010.0
20260904200014 79 249 0.0 0.0 0.00 0.00 0.00 64 1009.7
20260904194509 79 270 0.0 0.0 0.00 0.00 0.00 63 1010.2
20260904193010 78 254 0.0 0.0 0.00 0.00 0.00 63 1010.4